SND830 YSSY-YMLT

Flight info

Callsign SND830
Flight time 1h 28m
Altitude 38000
Route WOL H20 OTKED J22 LT
Aircraft A20N/M-SDE2E3FGHIRWXY/LB1

Departure

Time 2026-05-05 00:20
Airport Sydney Kingsford Smith International Airport (YSSY)

Arrival

Time 2026-05-05 01:48
Airport Launceston Airport (YMLT)
Time Latitude Longitude Altitude Speed Heading
2026-05-05 00:05 -33.94454 151.17240 27 ft 0 kts 161°
2026-05-05 00:14 -33.94449 151.17238 27 ft 1 kts 159°
2026-05-05 00:14 -33.94442 151.17235 27 ft 1 kts 154°
2026-05-05 00:14 -33.94435 151.17231 27 ft 1 kts 149°
2026-05-05 00:15 -33.94429 151.17226 27 ft 1 kts 143°
2026-05-05 00:15 -33.94413 151.17209 26 ft 3 kts 130°
2026-05-05 00:15 -33.94401 151.17189 32 ft 3 kts 116°
2026-05-05 00:15 -33.94394 151.17168 31 ft 3 kts 99°
2026-05-05 00:16 -33.94393 151.17150 29 ft 0 kts 77°
2026-05-05 00:16 -33.94393 151.17151 29 ft 0 kts 77°
2026-05-05 00:17 -33.94393 151.17152 31 ft 2 kts 77°
2026-05-05 00:17 -33.94351 151.17271 25 ft 25 kts 88°
2026-05-05 00:17 -33.94457 151.17348 30 ft 19 kts 165°
2026-05-05 00:17 -33.94630 151.17396 32 ft 30 kts 169°
2026-05-05 00:18 -33.94853 151.17439 20 ft 35 kts 174°
2026-05-05 00:18 -33.95062 151.17498 20 ft 25 kts 162°
2026-05-05 00:18 -33.95151 151.17586 19 ft 3 kts 97°
2026-05-05 00:18 -33.95149 151.17610 19 ft 9 kts 81°
2026-05-05 00:19 -33.95057 151.17690 21 ft 25 kts
2026-05-05 00:19 -33.94746 151.17624 23 ft 79 kts 346°
2026-05-05 00:19 -33.93997 151.17429 18 ft 139 kts 349°
2026-05-05 00:19 -33.92924 151.17167 203 ft 174 kts 345°
2026-05-05 00:20 -33.91740 151.16711 835 ft 176 kts 324°
2026-05-05 00:20 -33.90860 151.15771 1839 ft 171 kts 297°
2026-05-05 00:20 -33.90471 151.14356 2339 ft 197 kts 268°
2026-05-05 00:20 -33.90731 151.12600 2655 ft 227 kts 256°
2026-05-05 00:21 -33.90990 151.10676 2935 ft 238 kts 265°
2026-05-05 00:21 -33.90910 151.08665 3222 ft 244 kts 275°
2026-05-05 00:21 -33.90546 151.06655 3500 ft 248 kts 282°
2026-05-05 00:21 -33.90020 151.04663 3769 ft 252 kts 286°
2026-05-05 00:22 -33.89424 151.02682 4039 ft 251 kts 286°
2026-05-05 00:22 -33.89175 151.00636 4347 ft 251 kts 261°
2026-05-05 00:22 -33.89843 150.98698 5144 ft 256 kts 231°
2026-05-05 00:22 -33.91252 150.97370 6183 ft 263 kts 204°
2026-05-05 00:23 -33.93023 150.96732 7219 ft 270 kts 195°
2026-05-05 00:23 -33.94878 150.96234 8198 ft 276 kts 194°
2026-05-05 00:23 -33.96777 150.95755 9248 ft 281 kts 194°
2026-05-05 00:23 -33.98678 150.95263 10259 ft 286 kts 195°
2026-05-05 00:24 -34.00693 150.94719 10787 ft 308 kts 196°
2026-05-05 00:24 -34.02866 150.94113 11179 ft 332 kts 196°
2026-05-05 00:24 -34.05155 150.93470 11903 ft 341 kts 197°
2026-05-05 00:24 -34.07476 150.92821 12892 ft 343 kts 197°
2026-05-05 00:25 -34.09828 150.92163 13731 ft 350 kts 198°
2026-05-05 00:25 -34.12215 150.91491 14576 ft 353 kts 198°
2026-05-05 00:25 -34.14618 150.90814 15407 ft 356 kts 198°
2026-05-05 00:25 -34.17047 150.90129 16202 ft 361 kts 198°
2026-05-05 00:26 -34.19507 150.89434 17014 ft 364 kts 198°
2026-05-05 00:26 -34.21992 150.88731 17799 ft 368 kts 198°
2026-05-05 00:26 -34.24500 150.88021 18543 ft 373 kts 198°
2026-05-05 00:26 -34.27012 150.87309 19202 ft 378 kts 198°
2026-05-05 00:27 -34.29581 150.86584 19914 ft 380 kts 198°
2026-05-05 00:27 -34.32177 150.85849 20519 ft 386 kts 198°
2026-05-05 00:27 -34.34806 150.85102 21128 ft 391 kts 198°
2026-05-05 00:27 -34.37479 150.84341 21739 ft 397 kts 199°
2026-05-05 00:28 -34.40184 150.83569 22369 ft 402 kts 199°
2026-05-05 00:28 -34.42923 150.82790 22936 ft 407 kts 199°
2026-05-05 00:28 -34.45700 150.82001 23542 ft 412 kts 199°
2026-05-05 00:28 -34.48511 150.81202 24073 ft 417 kts 199°
2026-05-05 00:29 -34.51332 150.80402 24719 ft 417 kts 199°
2026-05-05 00:29 -34.54156 150.79542 25206 ft 418 kts 203°
2026-05-05 00:29 -34.56877 150.78318 25678 ft 417 kts 210°
2026-05-05 00:29 -34.59453 150.76720 26182 ft 416 kts 215°
2026-05-05 00:30 -34.61963 150.75041 26704 ft 419 kts 215°
2026-05-05 00:30 -34.64533 150.73338 27181 ft 422 kts 215°
2026-05-05 00:30 -34.67113 150.71627 27667 ft 424 kts 216°
2026-05-05 00:30 -34.69714 150.69903 28115 ft 428 kts 216°
2026-05-05 00:31 -34.72321 150.68176 28561 ft 431 kts 216°
2026-05-05 00:31 -34.74964 150.66422 28987 ft 434 kts 216°
2026-05-05 00:31 -34.77622 150.64655 29410 ft 437 kts 216°
2026-05-05 00:31 -34.80300 150.62872 29800 ft 440 kts 216°
2026-05-05 00:32 -34.83004 150.61071 30206 ft 442 kts 216°
2026-05-05 00:32 -34.85710 150.59268 30550 ft 445 kts 217°
2026-05-05 00:32 -34.88432 150.57451 30974 ft 445 kts 216°
2026-05-05 00:32 -34.91122 150.55657 31371 ft 447 kts 216°
2026-05-05 00:33 -34.93906 150.53931 31768 ft 453 kts 211°
2026-05-05 00:33 -34.96871 150.52558 32203 ft 459 kts 205°
2026-05-05 00:33 -34.99981 150.51551 32649 ft 463 kts 201°
2026-05-05 00:33 -35.03114 150.50633 33082 ft 463 kts 201°
2026-05-05 00:34 -35.06243 150.49700 33497 ft 462 kts 201°
2026-05-05 00:34 -35.09364 150.48766 33991 ft 460 kts 201°
2026-05-05 00:34 -35.12470 150.47839 34384 ft 460 kts 201°
2026-05-05 00:34 -35.15534 150.46924 34707 ft 460 kts 201°
2026-05-05 00:35 -35.18594 150.46010 35045 ft 460 kts 201°
2026-05-05 00:35 -35.21703 150.45079 35369 ft 459 kts 201°
2026-05-05 00:35 -35.24814 150.44151 35712 ft 458 kts 201°
2026-05-05 00:35 -35.27913 150.43226 36016 ft 458 kts 201°
2026-05-05 00:36 -35.30973 150.42309 36296 ft 458 kts 201°
2026-05-05 00:36 -35.34068 150.41381 36579 ft 458 kts 201°
2026-05-05 00:36 -35.37169 150.40452 36846 ft 459 kts 201°
2026-05-05 00:36 -35.40270 150.39523 37120 ft 459 kts 201°
2026-05-05 00:37 -35.43372 150.38592 37368 ft 459 kts 201°
2026-05-05 00:37 -35.46476 150.37661 37633 ft 459 kts 201°
2026-05-05 00:37 -35.49577 150.36728 37906 ft 459 kts 201°
2026-05-05 00:37 -35.52684 150.35792 38078 ft 460 kts 201°
2026-05-05 00:38 -35.55782 150.34859 38116 ft 459 kts 201°
2026-05-05 00:38 -35.61967 150.33001 38124 ft 457 kts 201°
2026-05-05 00:39 -35.68158 150.31131 38121 ft 458 kts 201°
2026-05-05 00:39 -35.74303 150.29271 38123 ft 457 kts 200°
2026-05-05 00:40 -35.80480 150.27400 38112 ft 457 kts 200°
2026-05-05 00:40 -35.86665 150.25525 38120 ft 458 kts 200°
2026-05-05 00:41 -35.92854 150.23645 38122 ft 459 kts 200°
2026-05-05 00:41 -35.99057 150.21759 38124 ft 459 kts 200°
2026-05-05 00:42 -36.05257 150.19871 38121 ft 459 kts 200°
2026-05-05 00:42 -36.10417 150.18296 38126 ft 459 kts 200°
2026-05-05 00:43 -36.16590 150.16411 38103 ft 457 kts 200°
2026-05-05 00:43 -36.22748 150.14528 38107 ft 456 kts 200°
2026-05-05 00:44 -36.28863 150.12652 38133 ft 456 kts 200°
2026-05-05 00:44 -36.35006 150.10766 38107 ft 456 kts 200°
2026-05-05 00:45 -36.41141 150.08880 38100 ft 456 kts 200°
2026-05-05 00:45 -36.47288 150.06987 38107 ft 456 kts 200°
2026-05-05 00:46 -36.53377 150.05108 38103 ft 457 kts 200°
2026-05-05 00:46 -36.59499 150.03217 38107 ft 457 kts 200°
2026-05-05 00:47 -36.65674 150.01306 38112 ft 457 kts 200°
2026-05-05 00:47 -36.71810 149.99404 38107 ft 457 kts 200°
2026-05-05 00:48 -36.77976 149.97490 38102 ft 456 kts 200°
2026-05-05 00:48 -36.84143 149.95572 38103 ft 456 kts 200°
2026-05-05 00:49 -36.90304 149.93652 38111 ft 457 kts 200°
2026-05-05 00:49 -36.96468 149.91728 38106 ft 457 kts 200°
2026-05-05 00:50 -37.02639 149.89799 38102 ft 456 kts 200°
2026-05-05 00:50 -37.08800 149.87870 38102 ft 457 kts 200°
2026-05-05 00:51 -37.14925 149.85949 38091 ft 456 kts 200°
2026-05-05 00:51 -37.21086 149.84014 38094 ft 456 kts 200°
2026-05-05 00:52 -37.27246 149.82075 38115 ft 456 kts 200°
2026-05-05 00:52 -37.33417 149.80129 38085 ft 457 kts 200°
2026-05-05 00:53 -37.39590 149.78180 38084 ft 458 kts 200°
2026-05-05 00:53 -37.45771 149.76225 38110 ft 458 kts 200°
2026-05-05 00:54 -37.51970 149.74261 38083 ft 460 kts 200°
2026-05-05 00:54 -37.58087 149.72173 38081 ft 456 kts 205°
2026-05-05 00:55 -37.63860 149.69037 38085 ft 448 kts 214°
2026-05-05 00:55 -37.69403 149.65385 38083 ft 449 kts 213°
2026-05-05 00:56 -37.74963 149.61753 38103 ft 450 kts 214°
2026-05-05 00:56 -37.80521 149.58103 37800 ft 448 kts 214°
2026-05-05 00:56 -37.83268 149.56296 37556 ft 442 kts 214°
2026-05-05 00:57 -37.85989 149.54501 37287 ft 441 kts 214°
2026-05-05 00:57 -37.88716 149.52697 37030 ft 442 kts 214°
2026-05-05 00:57 -37.91448 149.50888 36776 ft 442 kts 214°
2026-05-05 00:57 -37.94166 149.49089 36525 ft 441 kts 214°
2026-05-05 00:58 -37.96845 149.47316 36286 ft 439 kts 214°
2026-05-05 00:58 -37.99555 149.45519 36069 ft 439 kts 214°
2026-05-05 00:58 -38.02261 149.43724 35826 ft 439 kts 214°
2026-05-05 00:58 -38.04972 149.41924 35585 ft 438 kts 214°
2026-05-05 00:59 -38.07668 149.40133 35346 ft 437 kts 215°
2026-05-05 00:59 -38.10354 149.38348 35108 ft 436 kts 215°
2026-05-05 00:59 -38.13042 149.36559 34873 ft 435 kts 215°
2026-05-05 00:59 -38.15722 149.34774 34648 ft 435 kts 215°
2026-05-05 01:00 -38.18401 149.32988 34435 ft 435 kts 215°
2026-05-05 01:00 -38.21076 149.31203 34198 ft 434 kts 215°
2026-05-05 01:00 -38.23745 149.29420 33950 ft 433 kts 215°
2026-05-05 01:00 -38.26411 149.27638 33673 ft 433 kts 215°
2026-05-05 01:01 -38.29075 149.25854 33408 ft 433 kts 215°
2026-05-05 01:01 -38.31740 149.24069 33143 ft 433 kts 214°
2026-05-05 01:01 -38.34401 149.22284 32904 ft 432 kts 214°
2026-05-05 01:01 -38.37061 149.20500 32650 ft 432 kts 214°
2026-05-05 01:02 -38.39720 149.18715 32380 ft 432 kts 214°
2026-05-05 01:02 -38.42343 149.16952 32128 ft 432 kts 213°
2026-05-05 01:02 -38.44999 149.15166 31875 ft 431 kts 213°
2026-05-05 01:02 -38.47651 149.13381 31619 ft 431 kts 213°
2026-05-05 01:03 -38.50304 149.11594 31370 ft 431 kts 213°
2026-05-05 01:03 -38.52965 149.09799 31117 ft 431 kts 213°
2026-05-05 01:03 -38.55613 149.08011 30875 ft 431 kts 213°
2026-05-05 01:03 -38.58260 149.06224 30633 ft 430 kts 213°
2026-05-05 01:04 -38.60893 149.04444 30396 ft 426 kts 213°
2026-05-05 01:04 -38.66130 149.00897 29882 ft 424 kts 212°
2026-05-05 01:04 -38.68722 148.99141 29596 ft 418 kts 212°
2026-05-05 01:05 -38.71275 148.97410 29308 ft 415 kts 212°
2026-05-05 01:05 -38.73830 148.95676 29025 ft 415 kts 212°
2026-05-05 01:05 -38.76368 148.93953 28749 ft 412 kts 212°
2026-05-05 01:05 -38.78893 148.92239 28481 ft 409 kts 212°
2026-05-05 01:06 -38.81409 148.90527 28205 ft 408 kts 212°
2026-05-05 01:06 -38.83911 148.88823 27961 ft 406 kts 211°
2026-05-05 01:06 -38.86385 148.87136 27682 ft 400 kts 211°
2026-05-05 01:06 -38.88833 148.85468 27432 ft 397 kts 211°
2026-05-05 01:07 -38.91238 148.83829 27171 ft 397 kts 211°
2026-05-05 01:07 -38.93669 148.82166 26902 ft 395 kts 211°
2026-05-05 01:07 -38.96089 148.80509 26658 ft 393 kts 211°
2026-05-05 01:07 -38.98498 148.78860 26404 ft 391 kts 211°
2026-05-05 01:08 -39.00892 148.77221 26165 ft 388 kts 210°
2026-05-05 01:08 -39.03263 148.75596 25900 ft 385 kts 210°
2026-05-05 01:08 -39.05632 148.73974 25628 ft 387 kts 211°
2026-05-05 01:08 -39.08010 148.72343 25398 ft 388 kts 210°
2026-05-05 01:09 -39.10382 148.70717 25360 ft 383 kts 210°
2026-05-05 01:09 -39.12743 148.69097 25365 ft 385 kts 211°
2026-05-05 01:09 -39.15111 148.67467 25364 ft 387 kts 210°
2026-05-05 01:09 -39.17486 148.65832 25379 ft 386 kts 210°
2026-05-05 01:10 -39.19859 148.64198 25298 ft 386 kts 210°
2026-05-05 01:10 -39.22227 148.62565 25067 ft 385 kts 210°
2026-05-05 01:10 -39.24576 148.60945 24823 ft 381 kts 210°
2026-05-05 01:10 -39.26906 148.59337 24581 ft 379 kts 210°
2026-05-05 01:11 -39.29233 148.57728 24354 ft 379 kts 210°
2026-05-05 01:11 -39.31549 148.56127 24118 ft 377 kts 210°
2026-05-05 01:11 -39.33853 148.54531 23894 ft 375 kts 209°
2026-05-05 01:11 -39.36150 148.52940 23663 ft 374 kts 209°
2026-05-05 01:12 -39.38439 148.51355 23397 ft 372 kts 209°
2026-05-05 01:12 -39.40726 148.49772 23122 ft 371 kts 209°
2026-05-05 01:12 -39.42969 148.48217 22853 ft 370 kts 209°
2026-05-05 01:12 -39.45229 148.46652 22565 ft 367 kts 210°
2026-05-05 01:13 -39.47490 148.45084 22295 ft 368 kts 210°
2026-05-05 01:13 -39.49741 148.43517 22051 ft 367 kts 210°
2026-05-05 01:13 -39.51988 148.41952 21788 ft 365 kts 210°
2026-05-05 01:13 -39.54224 148.40395 21523 ft 363 kts 210°
2026-05-05 01:14 -39.56444 148.38848 21262 ft 362 kts 210°
2026-05-05 01:14 -39.58658 148.37305 21003 ft 360 kts 210°
2026-05-05 01:14 -39.60864 148.35765 20755 ft 359 kts 210°
2026-05-05 01:14 -39.63062 148.34230 20501 ft 357 kts 210°
2026-05-05 01:15 -39.65248 148.32702 20262 ft 357 kts 209°
2026-05-05 01:15 -39.67432 148.31174 20024 ft 356 kts 210°
2026-05-05 01:15 -39.69536 148.29701 19779 ft 355 kts 210°
2026-05-05 01:15 -39.71612 148.28248 19537 ft 353 kts 210°
2026-05-05 01:16 -39.73774 148.26733 19298 ft 352 kts 210°
2026-05-05 01:16 -39.75924 148.25225 19063 ft 351 kts 210°
2026-05-05 01:16 -39.78043 148.23738 18826 ft 350 kts 210°
2026-05-05 01:16 -39.80178 148.22239 18600 ft 348 kts 210°
2026-05-05 01:17 -39.82309 148.20741 18367 ft 348 kts 210°
2026-05-05 01:17 -39.84436 148.19245 18079 ft 347 kts 210°
2026-05-05 01:17 -39.86560 148.17749 17804 ft 346 kts 210°
2026-05-05 01:17 -39.88678 148.16258 17544 ft 345 kts 210°
2026-05-05 01:18 -39.90783 148.14774 17285 ft 344 kts 210°
2026-05-05 01:18 -39.92877 148.13298 17027 ft 342 kts 210°
2026-05-05 01:18 -39.94962 148.11826 16765 ft 341 kts 210°
2026-05-05 01:18 -39.97047 148.10353 16512 ft 340 kts 210°
2026-05-05 01:19 -39.99101 148.08902 16256 ft 339 kts 210°
2026-05-05 01:19 -40.01175 148.07435 16000 ft 338 kts 210°
2026-05-05 01:19 -40.03237 148.05976 15753 ft 337 kts 210°
2026-05-05 01:19 -40.05292 148.04522 15500 ft 335 kts 210°
2026-05-05 01:20 -40.07315 148.03089 15266 ft 334 kts 210°
2026-05-05 01:20 -40.09347 148.01656 15015 ft 334 kts 208°
2026-05-05 01:20 -40.11473 148.00437 14776 ft 333 kts 204°
2026-05-05 01:20 -40.13618 147.99285 14530 ft 333 kts 204°
2026-05-05 01:21 -40.15755 147.98137 14344 ft 330 kts 204°
2026-05-05 01:21 -40.17880 147.96990 14294 ft 331 kts 205°
2026-05-05 01:21 -40.19989 147.95847 14247 ft 332 kts 205°
2026-05-05 01:21 -40.22125 147.94688 14197 ft 330 kts 205°
2026-05-05 01:22 -40.24249 147.93535 14154 ft 331 kts 205°
2026-05-05 01:22 -40.26377 147.92379 14104 ft 330 kts 205°
2026-05-05 01:22 -40.28498 147.91226 14059 ft 330 kts 205°
2026-05-05 01:22 -40.30612 147.90074 14019 ft 331 kts 205°
2026-05-05 01:23 -40.32743 147.88913 13969 ft 331 kts 205°
2026-05-05 01:23 -40.34862 147.87759 13920 ft 330 kts 205°
2026-05-05 01:23 -40.36987 147.86602 13873 ft 330 kts 205°
2026-05-05 01:23 -40.39105 147.85447 13825 ft 330 kts 205°
2026-05-05 01:24 -40.41195 147.84306 13775 ft 329 kts 205°
2026-05-05 01:24 -40.43312 147.83149 13722 ft 330 kts 205°
2026-05-05 01:24 -40.45431 147.81991 13677 ft 330 kts 205°
2026-05-05 01:24 -40.47554 147.80829 13617 ft 330 kts 205°
2026-05-05 01:25 -40.49672 147.79670 13567 ft 330 kts 205°
2026-05-05 01:25 -40.51791 147.78509 13509 ft 330 kts 205°
2026-05-05 01:25 -40.53909 147.77348 13448 ft 329 kts 205°
2026-05-05 01:25 -40.56024 147.76188 13300 ft 329 kts 205°
2026-05-05 01:26 -40.58131 147.75031 13137 ft 328 kts 205°
2026-05-05 01:26 -40.60232 147.73877 12957 ft 327 kts 205°
2026-05-05 01:26 -40.62304 147.72738 12769 ft 326 kts 205°
2026-05-05 01:26 -40.64419 147.71575 12617 ft 325 kts 205°
2026-05-05 01:27 -40.66474 147.70443 12462 ft 324 kts 205°
2026-05-05 01:27 -40.68552 147.69299 12310 ft 324 kts 205°
2026-05-05 01:27 -40.70627 147.68155 12156 ft 322 kts 205°
2026-05-05 01:27 -40.72694 147.67016 12036 ft 322 kts 205°
2026-05-05 01:28 -40.74763 147.65874 11924 ft 322 kts 205°
2026-05-05 01:28 -40.76830 147.64732 11798 ft 321 kts 205°
2026-05-05 01:28 -40.78887 147.63594 11696 ft 320 kts 205°
2026-05-05 01:28 -40.80942 147.62457 11674 ft 321 kts 205°
2026-05-05 01:29 -40.83006 147.61315 11560 ft 321 kts 205°
2026-05-05 01:29 -40.85071 147.60172 11438 ft 321 kts 205°
2026-05-05 01:29 -40.87127 147.59033 11315 ft 320 kts 205°
2026-05-05 01:29 -40.89181 147.57894 11191 ft 319 kts 205°
2026-05-05 01:30 -40.91230 147.56757 11067 ft 319 kts 205°
2026-05-05 01:30 -40.92584 147.56005 10986 ft 319 kts 205°
2026-05-05 01:30 -40.95312 147.54489 10819 ft 317 kts 205°
2026-05-05 01:30 -40.96658 147.53740 10737 ft 317 kts 205°
2026-05-05 01:31 -40.99346 147.52244 10575 ft 316 kts 205°
2026-05-05 01:31 -41.01375 147.51114 10449 ft 313 kts 205°
2026-05-05 01:31 -41.03342 147.50021 10327 ft 300 kts 205°
2026-05-05 01:31 -41.05216 147.48978 10208 ft 286 kts 205°
2026-05-05 01:32 -41.06411 147.48314 10124 ft 277 kts 205°
2026-05-05 01:32 -41.08725 147.47023 9961 ft 267 kts 205°
2026-05-05 01:32 -41.09864 147.46384 9888 ft 271 kts 205°
2026-05-05 01:32 -41.12180 147.45086 9704 ft 268 kts 205°
2026-05-05 01:33 -41.13900 147.44123 9574 ft 269 kts 205°
2026-05-05 01:33 -41.15602 147.43169 9438 ft 268 kts 205°
2026-05-05 01:33 -41.16758 147.42522 9347 ft 268 kts 205°
2026-05-05 01:33 -41.18480 147.41559 9218 ft 269 kts 205°
2026-05-05 01:34 -41.20204 147.40591 9094 ft 269 kts 205°
2026-05-05 01:34 -41.21920 147.39629 8962 ft 267 kts 205°
2026-05-05 01:34 -41.23633 147.38668 8824 ft 267 kts 205°
2026-05-05 01:34 -41.25346 147.37704 8596 ft 266 kts 205°
2026-05-05 01:35 -41.27047 147.36747 8368 ft 267 kts 205°
2026-05-05 01:35 -41.28759 147.35788 8142 ft 267 kts 204°
2026-05-05 01:35 -41.30469 147.34831 7915 ft 266 kts 204°
2026-05-05 01:35 -41.32170 147.33875 7691 ft 266 kts 204°
2026-05-05 01:36 -41.33868 147.32917 7457 ft 265 kts 204°
2026-05-05 01:36 -41.35545 147.31972 7241 ft 265 kts 204°
2026-05-05 01:36 -41.37240 147.31019 6983 ft 263 kts 205°
2026-05-05 01:36 -41.38915 147.30073 6715 ft 260 kts 205°
2026-05-05 01:37 -41.40569 147.29139 6447 ft 257 kts 205°
2026-05-05 01:37 -41.42223 147.28204 6169 ft 259 kts 205°
2026-05-05 01:37 -41.43881 147.27264 5894 ft 258 kts 204°
2026-05-05 01:37 -41.45529 147.26332 5603 ft 258 kts 204°
2026-05-05 01:38 -41.47173 147.25405 5329 ft 255 kts 204°
2026-05-05 01:38 -41.48806 147.24484 5058 ft 254 kts 204°
2026-05-05 01:38 -41.50429 147.23566 4774 ft 252 kts 204°
2026-05-05 01:38 -41.52044 147.22652 4495 ft 253 kts 204°
2026-05-05 01:39 -41.53714 147.21937 4204 ft 254 kts 187°
2026-05-05 01:39 -41.55472 147.22261 3927 ft 261 kts 159°
2026-05-05 01:39 -41.57052 147.23464 3654 ft 261 kts 150°
2026-05-05 01:39 -41.58597 147.24756 3381 ft 262 kts 150°
2026-05-05 01:40 -41.60132 147.26043 3144 ft 257 kts 149°
2026-05-05 01:40 -41.61659 147.27318 3059 ft 263 kts 149°
2026-05-05 01:40 -41.63219 147.28563 3026 ft 259 kts 158°
2026-05-05 01:40 -41.64969 147.29005 3026 ft 257 kts 186°
2026-05-05 01:41 -41.66595 147.28297 3025 ft 239 kts 214°
2026-05-05 01:41 -41.67764 147.26836 3021 ft 223 kts 228°
2026-05-05 01:41 -41.68792 147.25371 3010 ft 208 kts 223°
2026-05-05 01:41 -41.70049 147.24688 3032 ft 192 kts 179°
2026-05-05 01:42 -41.71163 147.25385 3013 ft 176 kts 129°
2026-05-05 01:42 -41.71408 147.26855 3010 ft 165 kts 72°
2026-05-05 01:42 -41.70856 147.28168 3008 ft 156 kts 51°
2026-05-05 01:42 -41.70173 147.29256 3028 ft 154 kts 47°
2026-05-05 01:43 -41.69457 147.30317 3026 ft 152 kts 46°
2026-05-05 01:43 -41.68727 147.31326 3022 ft 153 kts 35°
2026-05-05 01:43 -41.67779 147.31815 3030 ft 147 kts 358°
2026-05-05 01:43 -41.66800 147.31589 3028 ft 142 kts 335°
2026-05-05 01:44 -41.65928 147.31005 3020 ft 140 kts 325°
2026-05-05 01:44 -41.65108 147.30307 3001 ft 140 kts 323°
2026-05-05 01:44 -41.64289 147.29594 2738 ft 138 kts 324°
2026-05-05 01:44 -41.63493 147.28903 2549 ft 139 kts 324°
2026-05-05 01:45 -41.62690 147.28206 2358 ft 136 kts 324°
2026-05-05 01:45 -41.61904 147.27523 2169 ft 136 kts 324°
2026-05-05 01:45 -41.61106 147.26830 1988 ft 137 kts 325°
2026-05-05 01:45 -41.60316 147.26144 1809 ft 134 kts 326°
2026-05-05 01:46 -41.59542 147.25473 1618 ft 134 kts 326°
2026-05-05 01:46 -41.58761 147.24795 1428 ft 133 kts 327°
2026-05-05 01:46 -41.57986 147.24122 1262 ft 133 kts 327°
2026-05-05 01:46 -41.57223 147.23461 1068 ft 129 kts 327°
2026-05-05 01:47 -41.56470 147.22809 898 ft 129 kts 326°
2026-05-05 01:47 -41.55706 147.22145 720 ft 131 kts 326°
2026-05-05 01:47 -41.54951 147.21493 561 ft 123 kts 323°
2026-05-05 01:47 -41.54493 147.21081 562 ft 58 kts 329°
2026-05-05 01:48 -41.54297 147.20899 557 ft 24 kts 295°
2026-05-05 01:48 -41.54323 147.20780 559 ft 12 kts 230°
2026-05-05 01:48 -41.54310 147.20673 560 ft 7 kts 290°
2026-05-05 01:48 -41.54308 147.20665 559 ft 0 kts 290°